Regional Weather Roundup
Issued by NWS

Home | Current Version | Previous Version | Graphics & Text | Print | Product List | Glossary On
Versions: 1 2 3 4 5 6 7 8 9 10 11 12 13 14 15 16 17 18 19 20 21 22 23 24 25 26 27 28 29 30 31 32 33 34 35 36 37 38 39 40 41 42 43 44 45 46 47 48 49 50
000
ASUS43 KOAX 210002
RWRNE

WEATHER ROUNDUP FOR NEBRASKA
NATIONAL WEATHER SERVICE OMAHA NE
600 PM CST SAT DEC 20 2014

NOTES: SATELLITE DATA IS BEING USED TO AUGMENT CLOUD COVER ABOVE
       12000 FEET.
       "FAIR" INDICATES FEW OR NO CLOUDS BELOW 12,000 FEET WITH NO
       SIGNIFICANT WEATHER AND/OR OBSTRUCTIONS TO VISIBILITY.

  * THESE STATIONS DO NOT REPORT WEATHER SUCH AS RAIN...SNOW OR FOG.

NEZ001>004-019>022-054>056-210100-
NEBRASKA PANHANDLE

CITY           SKY/WX    TMP DP  RH WIND       PRES   REMARKS
SCOTTSBLUFF    PTCLDY    32  25  75 CALM      29.91F
6HR MIN TEMP:  30; 6HR MAX TEMP:  47;

ALLIANCE       PTCLDY    31  27  85 W3        29.90F
6HR MIN TEMP:  30; 6HR MAX TEMP:  40;

CHADRON        PTCLDY    33  26  75 SE3       29.90
6HR MIN TEMP:  33; 6HR MAX TEMP:  48;

SIDNEY         PTCLDY    34  26  72 CALM      29.94F
6HR MIN TEMP:  34; 6HR MAX TEMP:  48;

$$

NEZ057>060-069>072-079>082-210100-
SOUTHWEST NEBRASKA

CITY           SKY/WX    TMP DP  RH WIND       PRES   REMARKS
NORTH PLATTE   PTCLDY    34  28  79 CALM      29.93F
6HR MIN TEMP:  33; 6HR MAX TEMP:  38;

IMPERIAL       MOCLDY    40  28  62 SW5       29.95S
6HR MIN TEMP:  35; 6HR MAX TEMP:  49;

MCCOOK         MOCLDY    39  28  64 CALM      29.97S
6HR MIN TEMP:  36; 6HR MAX TEMP:  48;

$$

NEZ005>010-023>029-035>040-094-210100-
NORTH CENTRAL NEBRASKA

CITY           SKY/WX    TMP DP  RH WIND       PRES   REMARKS
VALENTINE      PTCLDY    32  27  81 SW7       29.90S WCI  26
6HR MIN TEMP:  31; 6HR MAX TEMP:  41;

BROKEN BOW     MOCLDY    36  30  79 SW3       29.93S
6HR MIN TEMP:  35; 6HR MAX TEMP:  43;

$$

NEZ041-046>049-061>064-073>077-083>087-210100-
SOUTH CENTRAL NEBRASKA

CITY           SKY/WX    TMP DP  RH WIND       PRES   REMARKS
GRAND ISLAND   FOG       32  31  96 SE12      29.99S VSB 3/4 WCI  23
6HR MIN TEMP:  31; 6HR MAX TEMP:  38;

HASTINGS       PTCLDY    35  32  88 SE9       29.97F WCI  28
6HR MIN TEMP:  32; 6HR MAX TEMP:  43;

KEARNEY *      FAIR      34  28  80 S3        29.98R
$$

NEZ011>018-030>034-042>045-210100-
NORTHEAST NEBRASKA

CITY           SKY/WX    TMP DP  RH WIND       PRES   REMARKS
NORFOLK        CLOUDY    32  30  92 SE9       29.99F FOG     WCI  24
6HR MIN TEMP:  32; 6HR MAX TEMP:  34;

BLAIR          CLOUDY    33  32  96 S8        30.07R FOG     WCI  26
COLUMBUS *     CLOUDY    30  27  86 SE8       30.04S WCI  23
TEKAMAH        CLOUDY    33  31  92 S7        30.08S FOG     WCI  27
6HR MIN TEMP:  33; 6HR MAX TEMP:  34;

$$

NEZ050>053-065>068-078-088>093-210100-
SOUTHEAST NEBRASKA

CITY           SKY/WX    TMP DP  RH WIND       PRES   REMARKS
LINCOLN        CLOUDY    36  32  85 SE7       30.08S WCI  30
6HR MIN TEMP:  33; 6HR MAX TEMP:  36;

OMAHA EPPLEY   CLOUDY    34  32  92 S9        30.10R FOG     WCI  27
6HR MIN TEMP:  33; 6HR MAX TEMP:  34;

FALLS CITY     CLOUDY    35  33  92 SE3       30.09S FOG
6HR MIN TEMP:  34; 6HR MAX TEMP:  36;

$$

NEZ044-045-051>053-067-210100-
OMAHA AREA

CITY           SKY/WX    TMP DP  RH WIND       PRES   REMARKS
OMAHA EPPLEY   CLOUDY    34  32  92 S9        30.10R FOG     WCI  27
6HR MIN TEMP:  33; 6HR MAX TEMP:  34;

BLAIR          CLOUDY    33  32  96 S8        30.07R FOG     WCI  26
OFFUTT AFB     CLOUDY    34  32  93 S6        30.09R WCI  29
$$



USA.gov is the U.S. government's official web portal to all federal, state and local government web resources and services.